Find OneWeb SL0219

NORAD ID: 48223 Int'l Des: 2021-031 Owner: ONEWEBN Country: UK Constellation: oneweb operational
別名: ONEWEB-0219 spacetrack, celestrak
LEOCIRCULARPOLARONEWEB_TYPE

現在のビュー

3D地球を読み込み中...

About OneWeb SL0219

OneWeb SL0219 (NORAD 48223) is a oneweb constellation satellite launched Apr 25, 2021 by ONEWEBN of UK. It operates in LEO, CIRCULAR, POLAR, ONEWEB_TYPE orbit with a mass of 148.00 kg.

次回通過

Passes for default location (London). Set your location on the main map for personalized predictions.

高度履歴

Loading altitude history...

軌道要素

1 48223U 21031P 26264.28419612 -.00000146 00000-0 -42961-3 0 9997
2 48223 87.8903 270.5352 0001745 96.8357 263.2971 13.14502819261008
Epoch: Sep 21, 2026 • Age: 9 hours

現在のステータス

高度 1215.1 km
遠地点 / 近地点 N/A
速度 7.25 km/s
衛星直下点 60.52°N, 29.7°E
打ち上げ日 Apr 25, 2021
運用期間 5.4 years
タイプ internet

技術仕様

分類 Payload
質量 148.00 kg
乾燥質量 140.00 kg
長さ 1.30 m
直径 1.00 m
スパン 5.00 m
形状 ? Trapezoid+2 pan
製造者 ONEWUS
バスタイプ ARROW
フェーズステータス In Orbit
所有者/国 ONEWEBN/UK

Most Searched